Time,TemperatureF,DewpointF,PressureIn,WindDirection,WindDirectionDegrees,WindSpeedMPH,WindSpeedGustMPH,Humidity,HourlyPrecipIn,Conditions,Clouds,dailyrainin,SoftwareType,DateUTC
2013-07-09 00:02:00,78.0,74.0,29.89,SSE,155,0.0,4.0,87,0.00,,,0.00,,2013-07-09 05:02:00,
2013-07-09 00:11:00,78.0,74.0,29.89,SSE,155,0.0,1.0,87,0.00,,,0.00,,2013-07-09 05:11:00,
2013-07-09 00:22:00,78.0,73.0,29.89,SSE,155,0.0,2.0,86,0.00,,,0.00,,2013-07-09 05:22:00,
2013-07-09 00:33:00,78.0,73.0,29.90,SSE,155,0.0,2.0,86,0.00,,,0.00,,2013-07-09 05:33:00,
2013-07-09 00:42:00,78.0,73.0,29.90,SSE,155,1.0,5.0,85,0.00,,,0.00,,2013-07-09 05:42:00,
2013-07-09 00:52:00,79.0,74.0,29.90,SSE,155,3.0,8.0,84,0.00,,,0.00,,2013-07-09 05:52:00,
2013-07-09 01:01:00,79.0,73.0,29.90,SSE,155,3.0,7.0,83,0.00,,,0.00,,2013-07-09 06:01:00,
2013-07-09 01:11:00,80.0,74.0,29.90,SSE,155,2.0,7.0,81,0.00,,,0.00,,2013-07-09 06:11:00,
2013-07-09 01:22:00,80.0,74.0,29.90,SSE,155,0.0,8.0,81,0.00,,,0.00,,2013-07-09 06:22:00,
2013-07-09 01:33:00,79.0,73.0,29.90,SSE,155,0.0,5.0,82,0.00,,,0.00,,2013-07-09 06:33:00,
2013-07-09 01:43:00,79.0,73.0,29.90,SSE,155,0.0,5.0,81,0.00,,,0.00,,2013-07-09 06:43:00,
2013-07-09 01:53:00,79.0,73.0,29.92,SSE,155,1.0,4.0,81,0.00,,,0.00,,2013-07-09 06:53:00,
2013-07-09 02:02:00,79.0,73.0,29.91,SSE,155,0.0,5.0,82,0.00,,,0.00,,2013-07-09 07:02:00,
2013-07-09 02:11:00,79.0,73.0,29.90,SSE,155,3.0,5.0,83,0.00,,,0.00,,2013-07-09 07:11:00,
2013-07-09 02:22:00,79.0,73.0,29.90,SSE,155,2.0,5.0,83,0.00,,,0.00,,2013-07-09 07:22:00,
2013-07-09 02:33:00,79.0,73.0,29.90,SSE,155,0.0,6.0,83,0.00,,,0.00,,2013-07-09 07:33:00,
2013-07-09 02:43:00,78.0,72.0,29.90,SSE,155,0.0,1.0,83,0.00,,,0.00,,2013-07-09 07:43:00,
2013-07-09 02:53:00,78.0,73.0,29.90,SSE,155,0.0,0.0,84,0.00,,,0.00,,2013-07-09 07:53:00,
2013-07-09 03:01:00,77.0,72.0,29.92,SSE,155,0.0,0.0,85,0.00,,,0.00,,2013-07-09 08:01:00,
2013-07-09 03:11:00,77.0,72.0,29.91,SSE,155,0.0,0.0,85,0.00,,,0.00,,2013-07-09 08:11:00,
2013-07-09 03:22:00,77.0,72.0,29.91,SSE,155,0.0,0.0,86,0.00,,,0.00,,2013-07-09 08:22:00,
2013-07-09 03:33:00,77.0,72.0,29.91,SSE,155,0.0,0.0,86,0.00,,,0.00,,2013-07-09 08:33:00,
2013-07-09 03:43:00,76.0,72.0,29.90,SSE,155,0.0,0.0,87,0.00,,,0.00,,2013-07-09 08:43:00,
2013-07-09 03:52:00,76.0,73.0,29.90,SSE,155,0.0,0.0,89,0.00,,,0.00,,2013-07-09 08:52:00,
2013-07-09 04:02:00,75.0,72.0,29.91,SSE,155,0.0,0.0,89,0.00,,,0.00,,2013-07-09 09:02:00,
2013-07-09 04:11:00,75.0,72.0,29.90,SSE,155,0.0,0.0,90,0.00,,,0.00,,2013-07-09 09:11:00,
2013-07-09 04:22:00,75.0,72.0,29.88,SSE,155,0.0,0.0,90,0.00,,,0.00,,2013-07-09 09:22:00,
2013-07-09 04:34:00,75.0,72.0,29.88,SSE,155,0.0,0.0,90,0.00,,,0.00,,2013-07-09 09:34:00,
2013-07-09 04:42:00,75.0,72.0,29.87,ESE,113,7.0,8.0,90,0.00,,,0.00,,2013-07-09 09:42:00,
2013-07-09 04:52:00,75.0,72.0,29.88,ESE,106,0.0,8.0,89,0.00,,,0.00,,2013-07-09 09:52:00,
2013-07-09 05:01:00,75.0,72.0,29.88,ESE,106,0.0,1.0,89,0.00,,,0.00,,2013-07-09 10:01:00,
2013-07-09 05:22:00,75.0,72.0,29.87,ESE,106,0.0,6.0,89,0.00,,,0.00,,2013-07-09 10:22:00,
2013-07-09 05:33:00,75.0,72.0,29.87,ESE,106,0.0,6.0,89,0.00,,,0.00,,2013-07-09 10:33:00,
2013-07-09 05:42:00,75.0,72.0,29.84,East,101,5.0,8.0,89,0.00,,,0.00,,2013-07-09 10:42:00,
2013-07-09 05:52:00,74.0,71.0,29.85,ESE,112,4.0,12.0,89,0.00,,,0.00,,2013-07-09 10:52:00,
2013-07-09 06:01:00,74.0,70.0,29.87,ESE,112,0.0,7.0,88,0.00,,,0.00,,2013-07-09 11:01:00,
2013-07-09 06:11:00,74.0,71.0,29.88,ESE,117,1.0,5.0,89,0.00,,,0.00,,2013-07-09 11:11:00,
2013-07-09 06:22:00,74.0,71.0,29.88,ESE,117,0.0,5.0,89,0.00,,,0.00,,2013-07-09 11:22:00,
2013-07-09 06:33:00,75.0,71.0,29.88,SSE,157,3.0,7.0,88,0.00,,,0.00,,2013-07-09 11:33:00,
2013-07-09 06:42:00,75.0,71.0,29.88,SSE,157,1.0,5.0,86,0.00,,,0.00,,2013-07-09 11:42:00,
2013-07-09 06:53:00,76.0,72.0,29.88,SSE,157,1.0,5.0,86,0.00,,,0.00,,2013-07-09 11:53:00,
2013-07-09 07:02:00,76.0,71.0,29.88,SSE,158,4.0,8.0,85,0.00,,,0.00,,2013-07-09 12:02:00,
2013-07-09 07:11:00,76.0,70.0,29.88,SSE,157,1.0,6.0,83,0.00,,,0.00,,2013-07-09 12:11:00,
2013-07-09 07:22:00,76.0,70.0,29.89,SSE,158,0.0,2.0,83,0.00,,,0.00,,2013-07-09 12:22:00,
2013-07-09 07:33:00,77.0,71.0,29.89,SSE,158,0.0,0.0,82,0.00,,,0.00,,2013-07-09 12:33:00,
2013-07-09 07:43:00,77.0,71.0,29.90,SSE,158,0.0,0.0,82,0.00,,,0.00,,2013-07-09 12:43:00,
2013-07-09 07:52:00,78.0,72.0,29.90,SSE,158,0.0,5.0,81,0.00,,,0.00,,2013-07-09 12:52:00,
2013-07-09 08:01:00,78.0,72.0,29.91,SSE,158,0.0,1.0,81,0.00,,,0.00,,2013-07-09 13:01:00,
2013-07-09 08:11:00,79.0,73.0,29.91,SSE,158,1.0,2.0,81,0.00,,,0.00,,2013-07-09 13:11:00,
2013-07-09 08:21:00,80.0,73.0,29.93,SSE,158,0.0,1.0,80,0.00,,,0.00,,2013-07-09 13:21:00,
2013-07-09 08:33:00,81.0,74.0,29.93,SSE,158,0.0,1.0,80,0.00,,,0.00,,2013-07-09 13:33:00,
2013-07-09 08:43:00,81.0,74.0,29.93,SSE,158,0.0,1.0,79,0.00,,,0.00,,2013-07-09 13:43:00,
2013-07-09 08:53:00,82.0,75.0,29.94,SSE,158,0.0,1.0,79,0.00,,,0.00,,2013-07-09 13:53:00,
2013-07-09 09:01:00,83.0,74.0,29.93,SSE,158,0.0,1.0,75,0.00,,,0.00,,2013-07-09 14:01:00,
2013-07-09 09:11:00,83.0,74.0,29.94,SSE,158,0.0,2.0,75,0.00,,,0.00,,2013-07-09 14:11:00,
2013-07-09 09:22:00,84.0,75.0,29.93,SE,126,2.0,6.0,75,0.00,,,0.00,,2013-07-09 14:22:00,
2013-07-09 09:34:00,84.0,76.0,29.93,ESE,109,6.0,7.0,76,0.00,,,0.00,,2013-07-09 14:34:00,
2013-07-09 09:43:00,84.0,75.0,29.93,ESE,106,5.0,7.0,75,0.00,,,0.00,,2013-07-09 14:43:00,
2013-07-09 09:53:00,85.0,76.0,29.92,ESE,107,3.0,9.0,75,0.00,,,0.00,,2013-07-09 14:53:00,
2013-07-09 10:01:00,85.0,76.0,29.91,SE,136,2.0,7.0,74,0.00,,,0.00,,2013-07-09 15:01:00,
2013-07-09 10:11:00,86.0,76.0,29.91,ESE,121,0.0,7.0,72,0.00,,,0.00,,2013-07-09 15:11:00,
2013-07-09 10:22:00,87.0,76.0,29.91,SE,142,2.0,6.0,69,0.00,,,0.00,,2013-07-09 15:22:00,
2013-07-09 10:33:00,87.0,75.0,29.91,SE,144,2.0,5.0,68,0.00,,,0.00,,2013-07-09 15:33:00,
2013-07-09 10:43:00,88.0,77.0,29.90,SE,141,1.0,6.0,70,0.00,,,0.00,,2013-07-09 15:43:00,
2013-07-09 10:52:00,88.0,75.0,29.90,SSE,149,2.0,6.0,66,0.00,,,0.00,,2013-07-09 15:52:00,
2013-07-09 11:02:00,88.0,75.0,29.90,SSE,151,2.0,6.0,66,0.00,,,0.00,,2013-07-09 16:02:00,
2013-07-09 11:11:00,89.0,76.0,29.90,SSE,151,0.0,6.0,65,0.00,,,0.00,,2013-07-09 16:11:00,
2013-07-09 11:22:00,89.0,74.0,29.90,South,173,2.0,7.0,61,0.00,,,0.00,,2013-07-09 16:22:00,
2013-07-09 11:34:00,90.0,75.0,29.90,SW,217,1.0,7.0,61,0.00,,,0.00,,2013-07-09 16:34:00,
2013-07-09 11:43:00,90.0,74.0,29.90,South,188,1.0,8.0,59,0.00,,,0.00,,2013-07-09 16:43:00,
2013-07-09 11:52:00,90.0,74.0,29.90,SSW,200,4.0,8.0,60,0.00,,,0.00,,2013-07-09 16:52:00,
2013-07-09 12:02:00,90.0,75.0,29.90,SSW,192,0.0,4.0,62,0.00,,,0.00,,2013-07-09 17:02:00,
2013-07-09 12:11:00,91.0,75.0,29.90,SW,227,0.0,7.0,60,0.00,,,0.00,,2013-07-09 17:11:00,
2013-07-09 12:22:00,91.0,76.0,29.90,SSE,158,2.0,9.0,62,0.00,,,0.00,,2013-07-09 17:22:00,
2013-07-09 12:35:00,91.0,76.0,29.89,SW,215,4.0,10.0,61,0.00,,,0.00,,2013-07-09 17:35:00,
2013-07-09 12:45:00,91.0,76.0,29.89,WSW,238,1.0,8.0,61,0.00,,,0.00,,2013-07-09 17:45:00,
2013-07-09 12:53:00,92.0,76.0,29.89,SSE,165,1.0,8.0,60,0.00,,,0.00,,2013-07-09 17:53:00,
2013-07-09 13:01:00,92.0,76.0,29.89,South,186,2.0,8.0,60,0.00,,,0.00,,2013-07-09 18:01:00,
2013-07-09 13:11:00,92.0,77.0,29.89,South,190,0.0,8.0,61,0.00,,,0.00,,2013-07-09 18:11:00,
2013-07-09 13:22:00,93.0,77.0,29.89,South,184,2.0,10.0,59,0.00,,,0.00,,2013-07-09 18:22:00,
2013-07-09 13:32:00,93.0,77.0,29.88,SSW,203,2.0,6.0,59,0.00,,,0.00,,2013-07-09 18:32:00,
2013-07-09 13:42:00,93.0,78.0,29.88,SSW,200,2.0,7.0,61,0.00,,,0.00,,2013-07-09 18:42:00,
2013-07-09 13:52:00,94.0,76.0,29.88,SSE,148,3.0,9.0,57,0.00,,,0.00,,2013-07-09 18:52:00,
2013-07-09 14:01:00,94.0,76.0,29.88,SSW,192,0.0,7.0,57,0.00,,,0.00,,2013-07-09 19:01:00,
2013-07-09 14:11:00,94.0,77.0,29.88,SSW,194,2.0,8.0,58,0.00,,,0.00,,2013-07-09 19:11:00,
2013-07-09 14:22:00,94.0,78.0,29.88,South,191,0.0,6.0,60,0.00,,,0.00,,2013-07-09 19:22:00,
2013-07-09 14:33:00,95.0,79.0,29.88,SW,229,0.0,7.0,60,0.00,,,0.00,,2013-07-09 19:33:00,
2013-07-09 14:42:00,95.0,76.0,29.88,NW,324,1.0,7.0,54,0.00,,,0.00,,2013-07-09 19:42:00,
2013-07-09 14:52:00,96.0,77.0,29.88,NW,320,2.0,7.0,55,0.00,,,0.00,,2013-07-09 19:52:00,
2013-07-09 15:01:00,96.0,77.0,29.88,WNW,302,0.0,7.0,54,0.00,,,0.00,,2013-07-09 20:01:00,
2013-07-09 15:11:00,96.0,76.0,29.88,WNW,296,5.0,8.0,53,0.00,,,0.00,,2013-07-09 20:11:00,
2013-07-09 15:21:00,96.0,76.0,29.88,SSW,197,0.0,6.0,53,0.00,,,0.00,,2013-07-09 20:21:00,
2013-07-09 15:32:00,96.0,74.0,29.88,WSW,245,0.0,6.0,50,0.00,,,0.00,,2013-07-09 20:32:00,
2013-07-09 15:42:00,96.0,74.0,29.88,West,280,2.0,8.0,50,0.00,,,0.00,,2013-07-09 20:42:00,
2013-07-09 15:52:00,97.0,76.0,29.88,NW,319,5.0,7.0,51,0.00,,,0.00,,2013-07-09 20:52:00,
2013-07-09 16:01:00,97.0,76.0,29.88,NW,319,0.0,5.0,52,0.00,,,0.00,,2013-07-09 21:01:00,
2013-07-09 16:11:00,97.0,75.0,29.88,NNE,26,0.0,5.0,49,0.00,,,0.00,,2013-07-09 21:11:00,
2013-07-09 16:22:00,97.0,75.0,29.88,NW,306,0.0,5.0,49,0.00,,,0.00,,2013-07-09 21:22:00,
2013-07-09 16:32:00,97.0,74.0,29.88,NW,307,0.0,5.0,48,0.00,,,0.00,,2013-07-09 21:32:00,
2013-07-09 16:42:00,97.0,74.0,29.88,WNW,303,0.0,7.0,48,0.00,,,0.00,,2013-07-09 21:42:00,
2013-07-09 16:52:00,98.0,76.0,29.88,WNW,303,1.0,6.0,50,0.00,,,0.00,,2013-07-09 21:52:00,
2013-07-09 17:01:00,98.0,76.0,29.88,North,355,0.0,5.0,50,0.00,,,0.00,,2013-07-09 22:01:00,
2013-07-09 17:11:00,99.0,77.0,29.88,North,355,0.0,4.0,50,0.00,,,0.00,,2013-07-09 22:11:00,
2013-07-09 17:22:00,99.0,77.0,29.88,NW,324,0.0,4.0,50,0.00,,,0.00,,2013-07-09 22:22:00,
2013-07-09 17:33:00,99.0,76.0,29.88,NW,323,1.0,4.0,48,0.00,,,0.00,,2013-07-09 22:33:00,
2013-07-09 17:42:00,99.0,78.0,29.88,NW,325,0.0,1.0,51,0.00,,,0.00,,2013-07-09 22:42:00,
2013-07-09 17:53:00,99.0,78.0,29.88,NNW,327,0.0,5.0,51,0.00,,,0.00,,2013-07-09 22:53:00,
2013-07-09 18:02:00,98.0,77.0,29.88,NNW,327,2.0,4.0,52,0.00,,,0.00,,2013-07-09 23:02:00,
2013-07-09 18:11:00,98.0,78.0,29.88,NNW,328,2.0,4.0,53,0.00,,,0.00,,2013-07-09 23:11:00,
2013-07-09 18:22:00,98.0,77.0,29.88,NNW,336,0.0,3.0,51,0.00,,,0.00,,2013-07-09 23:22:00,
2013-07-09 18:33:00,97.0,76.0,29.87,NNW,336,0.0,4.0,52,0.00,,,0.00,,2013-07-09 23:33:00,
2013-07-09 18:43:00,97.0,75.0,29.87,NNW,340,1.0,4.0,50,0.00,,,0.00,,2013-07-09 23:43:00,
2013-07-09 18:52:00,97.0,77.0,29.87,NE,38,1.0,4.0,53,0.00,,,0.00,,2013-07-09 23:52:00,
2013-07-09 19:01:00,96.0,77.0,29.87,NNW,337,0.0,2.0,55,0.00,,,0.00,,2013-07-10 00:01:00,
2013-07-09 19:11:00,95.0,76.0,29.87,ENE,71,0.0,2.0,55,0.00,,,0.00,,2013-07-10 00:11:00,
2013-07-09 19:22:00,94.0,76.0,29.87,WNW,296,0.0,3.0,57,0.00,,,0.00,,2013-07-10 00:22:00,
2013-07-09 19:33:00,93.0,77.0,29.88,NNE,26,0.0,4.0,59,0.00,,,0.00,,2013-07-10 00:33:00,
2013-07-09 19:42:00,92.0,78.0,29.88,NNE,26,0.0,1.0,63,0.00,,,0.00,,2013-07-10 00:42:00,
2013-07-09 19:52:00,92.0,78.0,29.88,NNE,26,0.0,1.0,64,0.00,,,0.00,,2013-07-10 00:52:00,
2013-07-09 20:01:00,92.0,79.0,29.88,NNE,13,0.0,1.0,65,0.00,,,0.00,,2013-07-10 01:01:00,
2013-07-09 20:11:00,92.0,79.0,29.88,NNE,13,0.0,1.0,65,0.00,,,0.00,,2013-07-10 01:11:00,
2013-07-09 20:22:00,90.0,78.0,29.88,SSE,165,0.0,3.0,67,0.00,,,0.00,,2013-07-10 01:22:00,
2013-07-09 20:33:00,88.0,77.0,29.88,North,349,0.0,4.0,69,0.00,,,0.00,,2013-07-10 01:33:00,
2013-07-09 20:43:00,87.0,76.0,29.89,NE,42,0.0,3.0,71,0.00,,,0.00,,2013-07-10 01:43:00,
2013-07-09 20:53:00,87.0,77.0,29.90,North,355,0.0,1.0,72,0.00,,,0.00,,2013-07-10 01:53:00,
2013-07-09 21:01:00,86.0,77.0,29.90,NW,319,1.0,6.0,74,0.00,,,0.00,,2013-07-10 02:01:00,
2013-07-09 21:11:00,85.0,76.0,29.91,North,5,1.0,5.0,74,0.00,,,0.00,,2013-07-10 02:11:00,
2013-07-09 21:22:00,85.0,77.0,29.91,North,355,0.0,2.0,76,0.00,,,0.00,,2013-07-10 02:22:00,
2013-07-09 21:34:00,84.0,76.0,29.91,NNE,24,0.0,5.0,77,0.00,,,0.00,,2013-07-10 02:34:00,
2013-07-09 21:43:00,84.0,76.0,29.91,NNW,328,0.0,7.0,77,0.00,,,0.00,,2013-07-10 02:43:00,
2013-07-09 21:53:00,83.0,75.0,29.91,NNW,331,0.0,0.0,77,0.00,,,0.00,,2013-07-10 02:53:00,
2013-07-09 22:01:00,83.0,75.0,29.91,North,10,1.0,5.0,77,0.00,,,0.00,,2013-07-10 03:01:00,
2013-07-09 22:11:00,83.0,75.0,29.92,NNW,329,1.0,4.0,78,0.00,,,0.00,,2013-07-10 03:11:00,
2013-07-09 22:22:00,82.0,75.0,29.92,NNW,333,0.0,6.0,79,0.00,,,0.00,,2013-07-10 03:22:00,
2013-07-09 22:32:00,82.0,75.0,29.92,NW,324,0.0,5.0,79,0.00,,,0.00,,2013-07-10 03:32:00,
2013-07-09 22:43:00,82.0,75.0,29.93,North,350,0.0,2.0,80,0.00,,,0.00,,2013-07-10 03:43:00,
2013-07-09 22:52:00,81.0,74.0,29.93,NNW,327,0.0,3.0,79,0.00,,,0.00,,2013-07-10 03:52:00,
2013-07-09 23:01:00,81.0,74.0,29.93,North,5,1.0,6.0,79,0.00,,,0.00,,2013-07-10 04:01:00,
2013-07-09 23:11:00,81.0,74.0,29.94,North,355,0.0,3.0,80,0.00,,,0.00,,2013-07-10 04:11:00,
2013-07-09 23:22:00,81.0,74.0,29.94,North,355,0.0,3.0,80,0.00,,,0.00,,2013-07-10 04:22:00,
2013-07-09 23:32:00,80.0,73.0,29.95,North,360,0.0,3.0,80,0.00,,,0.00,,2013-07-10 04:32:00,
2013-07-09 23:43:00,79.0,72.0,29.95,North,355,0.0,2.0,80,0.00,,,0.00,,2013-07-10 04:43:00,
2013-07-09 23:52:00,79.0,73.0,29.96,NNW,344,1.0,4.0,81,0.00,,,0.00,,2013-07-10 04:52:00,